Flag for Germany Weather past 2 weeks in Bamberg, Bavaria, Germany

Now
43 °F

Overcast.


Feels Like: 39 °F
Forecast: 34 / 43 °F
Wind: 6 mph from West

Location: Bamberg

Current Time: Mar 4, 2015 at 1:14:15 PM

Latest Report: Mar 4, 2015 at 1:00 PM


Visibility: 41 mi

Pressure: 30.30 "Hg

Humidity: 56%

Dew point: 28 °F

Location of BambergLocation

Historic Weather in Bamberg — Graph

°F

Bamberg temperature yesterday

Maximum temperature yesterday: 48 °F (at 4:00 PM)
Minimum temperature yesterday: 34 °F (at 6:00 AM)
Average temperature yesterday: 41 °F

Past Weeks' High & Low Weather Summary

 TemperatureHumidityPressure
High53 °F (Feb 20, 4:00 PM)98% (Feb 24, 12:00 AM)30.79 "Hg (Feb 24, 12:00 AM)
Low21 °F (Feb 27, 7:00 AM)42% (Feb 26, 2:00 PM)29.50 "Hg (Feb 21, 12:00 PM)
Average37 °F80%30.05 "Hg
* Reported Feb 17 12:00 Noon — Mar 4 12:00 Noon, Bamberg, Weather by CustomWeather, © 2015

Note: Actual official high and low records may vary slightly from our data, if they occured in-between our weather recording intervals... More about our weather records

Advertising

Bamberg weather history for previous 24 hours

 ConditionsComfort  
Time TempWeatherWind HumidityBarometerVisibility
12:00 PM
Wed, Mar 4
41 °FScattered clouds.5 mph66%30.30 "Hg34 mi
11:00 AM40 °FOvercast.5 mph72%30.30 "Hg31 mi
10:00 AM38 °FOvercast.3 mph78%30.30 "Hg22 mi
9:00 AM37 °FPartly sunny.2 mph80%30.28 "Hg16 mi
8:00 AM32 °FSunny.1 mph93%30.27 "Hg8 mi
7:00 AM31 °FSunny.2 mph95%30.25 "Hg11 mi
6:00 AM35 °FPassing clouds.3 mph84%30.22 "Hg34 mi
5:00 AM36 °FPassing clouds.2 mph86%30.20 "Hg31 mi
4:00 AM36 °FPassing clouds.3 mph85%30.18 "Hg34 mi
3:00 AM38 °FOvercast.6 mph84%30.15 "Hg43 mi
2:00 AM39 °FLight rain. Overcast.5 mph84%30.13 "Hg28 mi
1:00 AM39 °FOvercast.3 mph84%30.12 "Hg43 mi
12:00 AM40 °FRain. Passing clouds.8 mph82%30.12 "Hg2 mi
11:00 PM
Tue, Mar 3
45 °FOvercast.5 mph59%30.07 "Hg43 mi
10:00 PM44 °FOvercast.5 mph59%30.06 "Hg34 mi
9:00 PM45 °FOvercast.5 mph57%30.07 "Hg37 mi
8:00 PM44 °FOvercast.3 mph58%30.07 "Hg37 mi
7:00 PM46 °FOvercast.5 mph54%30.09 "Hg37 mi
6:00 PM46 °FScattered clouds.5 mph54%30.09 "Hg40 mi
5:00 PM47 °FOvercast.7 mph48%30.10 "Hg37 mi
4:00 PM48 °FOvercast.6 mph48%30.12 "Hg34 mi
3:00 PM46 °FScattered clouds.7 mph49%30.14 "Hg43 mi
2:00 PM47 °FPassing clouds.7 mph44%30.15 "Hg16 mi
1:00 PM46 °FPassing clouds.6 mph50%30.17 "Hg18 mi
Weather by CustomWeather, © 2015

See weather overviewHow to use our weather pages